User: anonymous   Login
Location: St Andrew
(49.4460°N, 2.5750°W)
Time: 03:55:05
(UTC+01:00)
Language:

Iridium 66 - Orbit

View from above orbital plane
View from above orbital plane
View from above satellite
View from above satellite

Ground track
Ground track

The orbit data is extracted from the following two-line orbital elements,

1 25289U 98021E   17147.58755154 +.00000191 +00000-0 +61253-4 0  9998
2 25289 086.3989 232.3500 0002342 095.4009 264.7454 14.34217767002077
Epoch (UTC): 27 May 2017 14:06:04
Eccentricity: 0.0002342
inclination: 86.3989°
perigee height: 776 km
apogee height: 779 km
right ascension of ascending node: 232.3500°
argument of perigee: 95.4009°
revolutions per day: 14.34217767
mean anomaly at epoch: 264.7454°
orbit number at epoch: 207

The dashed part of the orbit path shows where the satellite is in the earth's shadow,  

DLR